Location: A�t �Alizem
(31.2076°N, 8.7872°W)
Time: 06:37:47
(UTC+00:00)

BREEZE-M DEB (TANK) - Pass Details

Date: 27 November 2020
Orbit: 431 x 13851 km, 45.9° (Epoch: 16 January)

Event Time Altitude Azimuth Distance (km) Brightness Sun altitude
Rises 17:51:16 0° 223° (SW) 5,849 8.9 -4.5°
Reaches altitude 10° 17:56:33 10° 220° (SW) 3,515 7.6 -5.5°
Maximum altitude 18:03:11 54° 144° (SE) 791 3.0 -6.9°
Drops below altitude 10° 18:06:14 10° 65° (ENE) 1,636 4.0 -7.5°
Enters shadow 18:06:19 - 65° (ENE) 1,670 4.1 -7.5°
